User: anonymous   Login
Location: Caltech
(34.1382°N, 118.1253°W)
Time: 05:25:27
(UTC-08:00)
Language:

SL-08 R/B - Orbit

View from above orbital plane
View from above orbital plane
View from above satellite
View from above satellite

Ground track
Ground track

The orbit data is extracted from the following two-line orbital elements,

1 27561U 02054C   14351.04467525  .00000932  00000-0  22294-3 0  3696
2 27561 098.1303 126.0054 0047790 122.2325 004.6838 14.55126584639467
Epoch (UTC): 17 December 2014 01:04:19
Eccentricity: 0.0047790
inclination: 98.1303°
perigee height: 675 km
apogee height: 743 km
right ascension of ascending node: 126.0054°
argument of perigee: 122.2325°
revolutions per day: 14.55126584
mean anomaly at epoch: 4.6838°
orbit number at epoch: 63946

The dashed part of the orbit path shows where the satellite is in the earth's shadow,  

DLR